{"data":{"norad_id":64511,"epoch":"2026-05-24T16:17:24.743904Z","epoch_age_seconds":96080,"freshness":"FRESH","line1":"1 64511U 25134M   26144.67875861  .00049983  00000+0  70269-2 0  9995","line2":"2 64511  51.8995 250.6462 0000639  43.0121 317.0890 14.76868978 51413","mean_motion":14.76868978,"eccentricity":6.39e-5,"inclination_deg":51.8995,"raan_deg":250.6462,"arg_perigee_deg":43.0121,"mean_anomaly_deg":317.089,"bstar":0.0070269,"rev_number":5141,"period_min":97.503571505041,"perigee_km":638.77629659095,"apogee_km":639.67311541697,"semimajor_km":7017.361706004,"source":"CELESTRAK","updated_at":"2026-05-25T13:38:04.574322Z"}}